This is the latest recevied weather packets stored in our database for station/object KE6RLG. If no packets are shown the sender has not sent any weather packets the latest 10 day(s).
| Time | Temp. | Humidity | Pressure | Rain* | Wind** | Luminosity | Snow |
|---|---|---|---|---|---|---|---|
| 1777466425 | 10.56° C | 79% | 1016.8 hPa | 0 mm | - | 0 W/m² | - |
| 1777465826 | 10.56° C | 79% | 1016.8 hPa | 0 mm | - | 0 W/m² | - |
| 1777465525 | 10.56° C | 80% | 1016.7 hPa | 0 mm | - | 0 W/m² | - |
| 1777464926 | 10.56° C | 79% | 1016.8 hPa | 0 mm | - | 0 W/m² | - |
| 1777464326 | 10.56° C | 79% | 1016.7 hPa | 0 mm | - | 0 W/m² | - |
| 1777460427 | 10.56° C | 76% | 1016.4 hPa | 0 mm | - | 0 W/m² | - |
| 1777460127 | 10.56° C | 76% | 1016.3 hPa | 0 mm | - | 0 W/m² | - |
| 1777458327 | 10.56° C | 77% | 1016.1 hPa | 0 mm | - | 0 W/m² | - |
| 1777456827 | 10.56° C | 77% | 1016.1 hPa | 0 mm | - | 0 W/m² | - |
| 1777454728 | 11.11° C | 80% | 1016.1 hPa | 0 mm | - | 0 W/m² | - |
| 1777452628 | 11.11° C | 80% | 1016.3 hPa | 0 mm | - | 0 W/m² | - |
| 1777451449 | 11.11° C | 80% | 1016.5 hPa | 0 mm | - | 0 W/m² | - |
| 1777449029 | 11.11° C | 80% | 1017 hPa | 0 mm | - | 0 W/m² | - |
| 1777448729 | 11.11° C | 80% | 1017 hPa | 0 mm | - | 0 W/m² | - |
| 1777447829 | 10.56° C | 80% | 1016.9 hPa | 0 mm | - | 0 W/m² | - |
| 1777447249 | 11.11° C | 82% | 1016.8 hPa | 0 mm | - | 0 W/m² | - |
| 1777446350 | 10.56° C | 83% | 1016.9 hPa | 0 mm | - | 0 W/m² | - |
| 1777445130 | 11.11° C | 83% | 1016.8 hPa | 0 mm | - | 0 W/m² | - |
| 1777443930 | 11.67° C | 85% | 1016.8 hPa | 0 mm | - | 0 W/m² | - |
| 1777442431 | 12.22° C | 83% | 1016.7 hPa | 0 mm | - | 0 W/m² | - |
| 1777441231 | 12.78° C | 83% | 1016.8 hPa | 0 mm | - | 0 W/m² | - |
| 1777438220 | 13.89° C | 77% | 1016.7 hPa | 0 mm | - | 0 W/m² | - |
| 1777437620 | 13.89° C | 74% | 1016.7 hPa | 0 mm | - | 0 W/m² | - |
| 1777436120 | 14.44° C | 75% | 1016.5 hPa | 0 mm | - | 0 W/m² | - |
| 1777435220 | 15° C | 75% | 1016.3 hPa | 0 mm | - | 0 W/m² | - |
* Rain latest hour (hover to see other rain measurements)
** Current wind speed in m/s (hover to see current wind gust speed)